Location: Greenwich
(51.4790°N, 0.0090°E)
Time: 20:53:12
(UTC+01:00)

Transit 4A - All Passes

Search period start: 19 April 2024 00:00
Search period end: 29 April 2024 00:00
Orbit: 871 x 972 km, 66.8° (Epoch: 18 April)

Date Brightness Start Highest point End Pass type
(mag) Time Alt. Az. Time Alt. Az. Time Alt. Az.
19 Apr - 12:29:29 10° SE 12:32:37 15° ESE 12:35:44 10° ENE daylight
19 Apr - 14:12:01 10° SSW 14:17:58 71° ESE 14:23:49 10° NE daylight
19 Apr - 15:59:22 10° W 16:04:46 35° NW 16:10:06 10° NNE daylight
19 Apr - 17:48:49 10° NW 17:52:52 19° N 17:56:53 10° NE daylight
19 Apr - 19:36:56 10° NNW 19:41:22 22° NNE 19:45:48 10° ENE daylight
19 Apr - 21:23:18 10° NNW 21:29:01 53° NE 21:34:44 10° ESE visible
19 Apr - 23:09:53 10° NW 23:15:14 38° WSW 23:20:36 10° S visible
20 Apr - 12:37:00 10° SSE 12:41:21 21° ESE 12:45:38 10° ENE daylight
20 Apr - 14:21:00 10° SW 14:27:00 87° NW 14:32:55 10° NE daylight
20 Apr - 16:09:01 10° W 16:14:06 29° NNW 16:19:08 10° NNE daylight
20 Apr - 17:58:29 10° NW 18:02:24 18° N 18:06:18 10° NE daylight
20 Apr - 19:46:04 10° NNW 19:50:49 25° NNE 19:55:34 10° E daylight
20 Apr - 21:32:21 10° NW 21:38:11 69° NE 21:44:01 10° SE visible
20 Apr - 23:19:14 10° NW 23:24:04 28° WSW 23:28:56 10° SSW visible
21 Apr - 12:45:04 10° S 12:50:09 30° ESE 12:55:09 10° NE daylight
21 Apr - 14:30:10 10° SW 14:36:07 66° NW 14:41:58 10° NE daylight
21 Apr - 16:18:45 10° WNW 16:23:31 24° NNW 16:28:15 10° NNE daylight
21 Apr - 18:08:02 10° NW 18:11:57 18° N 18:15:51 10° NE daylight
21 Apr - 19:55:10 10° NNW 20:00:13 29° NNE 20:05:16 10° E daylight
21 Apr - 21:41:25 10° NW 21:47:17 90° WSW 21:53:09 10° SE visible
21 Apr - 23:28:49 10° WNW 23:32:51 20° WSW 23:36:54 10° SSW visible
22 Apr - 12:53:28 10° S 12:59:00 41° ESE 13:04:29 10° NE daylight
22 Apr - 14:39:30 10° WSW 14:45:17 51° NW 14:51:00 10° NNE daylight
22 Apr - 16:28:31 10° WNW 16:32:58 21° NNW 16:37:23 10° NNE daylight
22 Apr - 18:17:26 10° NW 18:21:29 19° N 18:25:31 10° NE daylight
22 Apr - 20:04:12 10° NNW 20:09:34 35° NE 20:14:54 10° E daylight
22 Apr - 21:50:31 10° NW 21:56:19 67° WSW 22:02:07 10° SSE visible
22 Apr - 23:38:54 10° WNW 23:41:34 13° WSW 23:44:14 10° SW visible
23 Apr - 11:21:22 10° ESE 11:22:49 11° E 11:24:17 10° E daylight
23 Apr - 13:02:07 10° SSW 13:07:56 57° ESE 13:13:41 10° NE daylight
23 Apr - 14:48:58 10° WSW 14:54:32 40° NW 15:00:02 10° NNE daylight
23 Apr - 16:38:17 10° WNW 16:42:28 19° NNW 16:46:37 10° NNE daylight
23 Apr - 18:26:44 10° NNW 18:31:00 20° NNE 18:35:15 10° ENE daylight
23 Apr - 20:13:15 10° NNW 20:18:50 44° NE 20:24:24 10° ESE daylight
23 Apr - 21:59:41 10° NW 22:05:15 48° WSW 22:10:52 10° S visible
24 Apr - 11:27:56 10° SE 11:31:30 16° ESE 11:35:01 10° ENE daylight
24 Apr - 13:10:58 10° SSW 13:16:56 78° SE 13:22:48 10° NE daylight
24 Apr - 14:58:32 10° W 15:03:50 32° NNW 15:09:04 10° NNE daylight
24 Apr - 16:48:01 10° NW 16:51:59 18° N 16:55:57 10° NE daylight
24 Apr - 18:35:56 10° NNW 18:40:29 23° NNE 18:45:00 10° ENE daylight
24 Apr - 20:22:17 10° NW 20:28:02 57° NE 20:33:49 10° SE daylight
24 Apr - 22:08:57 10° NW 22:14:09 35° WSW 22:19:24 10° S visible
25 Apr - 11:35:39 10° SSE 11:40:15 23° ESE 11:44:47 10° ENE daylight
25 Apr - 13:20:01 10° SW 13:25:59 80° NW 13:31:53 10° NE daylight
25 Apr - 15:08:13 10° W 15:13:11 27° NNW 15:18:08 10° NNE daylight
25 Apr - 16:57:38 10° NW 17:01:32 18° N 17:05:25 10° NE daylight
25 Apr - 18:45:04 10° NNW 18:49:55 26° NNE 18:54:45 10° E daylight
25 Apr - 20:31:19 10° NW 20:37:11 75° NE 20:43:02 10° SE daylight
25 Apr - 22:18:20 10° WNW 22:22:59 25° WSW 22:27:38 10° SSW visible
26 Apr - 11:43:50 10° S 11:49:03 33° ESE 11:54:13 10° NE daylight
26 Apr - 13:29:14 10° SW 13:35:07 61° NW 13:40:56 10° NE daylight
26 Apr - 15:17:57 10° WNW 15:22:37 23° NNW 15:27:14 10° NNE daylight
26 Apr - 17:07:08 10° NW 17:11:04 18° N 17:15:00 10° NE daylight
26 Apr - 18:54:08 10° NNW 18:59:17 31° NNE 19:04:26 10° E daylight
26 Apr - 20:40:24 10° NW 20:46:15 83° SW 20:52:07 10° SSE visible
26 Apr - 22:28:01 10° WNW 22:31:44 18° WSW 22:35:27 10° SW visible
27 Apr - 11:52:18 10° S 11:57:57 45° ESE 12:03:29 10° NE daylight
27 Apr - 13:38:36 10° WSW 13:44:18 47° NW 13:49:58 10° NNE daylight
27 Apr - 15:27:43 10° WNW 15:32:05 21° NNW 15:36:24 10° NNE daylight
27 Apr - 17:16:30 10° NW 17:20:36 19° N 17:24:41 10° NE daylight
27 Apr - 19:03:11 10° NNW 19:08:36 38° NE 19:14:02 10° ESE daylight
27 Apr - 20:49:30 10° NW 20:55:15 61° WSW 21:01:01 10° SSE visible
27 Apr - 22:38:25 10° W 22:40:25 12° W 22:42:25 10° WSW visible
28 Apr - 10:19:20 10° SE 10:21:40 12° ESE 10:24:00 10° ENE daylight
28 Apr - 12:01:01 10° SSW 12:06:53 63° ESE 12:12:40 10° NE daylight
28 Apr - 13:48:05 10° WSW 13:53:34 37° NW 13:58:59 10° NNE daylight
28 Apr - 15:37:28 10° NW 15:41:34 19° N 15:45:39 10° NE daylight
28 Apr - 17:25:46 10° NNW 17:30:06 21° NNE 17:34:26 10° ENE daylight
28 Apr - 19:12:13 10° NNW 19:17:51 48° NE 19:23:30 10° ESE daylight
28 Apr - 20:58:42 10° NW 21:04:11 44° WSW 21:09:43 10° S visible
